{"data":{"norad_id":57924,"epoch":"2026-05-24T18:50:05.995968Z","epoch_age_seconds":86890,"freshness":"FRESH","line1":"1 57924U 23147M   26144.78479162  .00004034  00000+0  15596-3 0  9994","line2":"2 57924  43.0021 259.0298 0002529 254.7600 105.2972 15.27596905148228","mean_motion":15.27596905,"eccentricity":0.0002529,"inclination_deg":43.0021,"raan_deg":259.0298,"arg_perigee_deg":254.76,"mean_anomaly_deg":105.2972,"bstar":0.00015596,"rev_number":14822,"period_min":94.265705520004,"perigee_km":481.26329569283,"apogee_km":484.73365801702,"semimajor_km":6861.1354768549,"source":"CELESTRAK","updated_at":"2026-05-25T13:38:18.458254Z"}}